[[{"header":{"parameterUnit":"m.s-1","parameterCategory":2,"la1":30.2991,"la2":30.254,"lo1":-89.0895,"lo2":-89.0444,"dy":0.0017,"dx":0.0017,"nx":28,"ny":28,"refTime":"2024-03-30T21:00:00:Z","depth":"0","parameterNumber":2,"parameterNumberName":"U-component_of_CURRENTS"},"data":[0,0,0,0,0,0,0,0,0,0,0,0,0,0,0,0,0,0,0,0,0,0,0,0,0,0,0,0,0,0,0,0,0,0,0,0,0,0,0,0,0,0,0,0,0,0,0,0,0,0,0,0,0,0,0,0,0,0,-0.3381,-0.3381,0,-0.342,-0.3421,-0.3421,-0.3457,-0.3458,-0.3458,-0.3459,-0.3522,-0.3524,-0.3525,0,0,0,0,0,0,0,0,0,0,0,0,0,-0.3368,-0.3368,-0.3381,-0.3381,-0.3382,-0.342,-0.3421,-0.3421,-0.3457,-0.3458,-0.3458,-0.3459,-0.3522,-0.3524,-0.3525,0,0,0,0,0,0,0,0,0,0,0,0,0,-0.3387,-0.3368,-0.3381,-0.3405,-0.3407,-0.342,-0.3421,-0.3421,-0.3457,-0.3458,-0.3458,-0.3459,-0.3522,-0.3523,-0.3525,-0.3523,0,0,-0.3531,-0.3532,0,0,0,0,0,0,0,0,-0.3386,-0.3387,-0.3401,-0.3403,-0.3406,-0.3435,-0.3439,-0.3457,-0.3457,-0.3438,-0.3459,-0.3459,-0.3495,-0.3499,-0.3504,-0.3526,-0.3529,-0.3531,-0.3532,-0.3533,-0.3534,0,0,0,0,0,0,0,-0.3384,-0.3386,-0.3396,-0.3401,-0.3404,-0.3424,-0.3427,-0.3443,-0.3462,-0.344,-0.3442,-0.3447,-0.3497,-0.3502,-0.3506,-0.353,-0.3531,-0.3533,-0.3534,-0.3535,-0.3558,-0.3558,0,0,0,0,0,0,-0.3377,-0.3384,-0.3395,-0.3397,-0.3397,-0.3424,-0.3427,-0.3425,-0.3462,-0.3468,-0.3446,-0.3448,-0.3499,-0.3504,-0.3509,-0.3491,-0.3533,-0.3535,-0.3536,-0.3559,-0.3558,-0.3558,0,0,0,0,0,0,-0.3377,-0.3377,-0.3393,-0.3392,-0.3396,-0.3423,-0.342,-0.3425,-0.3426,-0.3467,-0.3473,-0.3442,-0.35,-0.3506,-0.3524,-0.3495,-0.3536,-0.3538,-0.3559,-0.3559,-0.3558,-0.3467,0,0,0,0,0,0,-0.3376,-0.3377,-0.3363,-0.3392,-0.3396,-0.3386,-0.3419,-0.3425,-0.3428,-0.3431,-0.3465,-0.3472,-0.3501,-0.3521,-0.3525,-0.3498,-0.3539,-0.356,-0.3559,-0.3558,-0.3471,-0.3463,-0.3457,0,0,0,0,0,-0.3375,-0.3336,-0.3362,-0.3363,-0.3378,-0.3385,-0.3388,-0.341,-0.3427,-0.3416,-0.3451,-0.3471,-0.3518,-0.3522,-0.3528,-0.35,-0.3561,-0.3559,-0.3558,-0.3474,-0.3465,-0.3457,0,0,0,0,0,0,-0.3308,-0.3337,-0.3366,-0.3335,-0.336,-0.3391,-0.337,-0.3401,-0.3419,-0.3419,-0.3467,-0.3475,-0.3478,-0.3506,-0.3509,-0.3506,-0.3541,-0.3541,-0.3475,-0.3466,-0.346,-0.3447,-0.3541,0,0,0,0,0,-0.3293,-0.3272,-0.3319,-0.3289,-0.33,-0.3339,-0.3342,-0.3365,-0.339,-0.3398,-0.3429,-0.3459,-0.3477,-0.3486,-0.3507,-0.3506,-0.3505,-0.3493,-0.3486,-0.348,-0.3475,-0.3442,-0.3431,-0.3554,-0.3554,-0.3554,0,0,-0.3249,-0.3267,-0.325,-0.3274,-0.3291,-0.331,-0.3341,-0.3335,-0.335,-0.3401,-0.3414,-0.3434,-0.3473,-0.3471,-0.3474,-0.3491,-0.3443,-0.3478,-0.3472,-0.3471,-0.344,-0.3427,-0.3416,-0.3553,-0.3553,-0.3553,0,0,-0.3177,-0.3179,-0.3161,-0.3189,-0.3223,-0.3253,-0.3253,-0.3292,-0.3303,-0.3328,-0.3361,-0.3359,-0.3407,-0.3411,-0.3425,-0.3392,-0.3407,-0.3406,-0.3358,-0.3326,-0.3314,-0.3305,-0.3275,-0.3263,-0.3402,-0.3402,-0.3401,0,-0.3127,-0.3133,-0.3152,-0.3169,-0.3187,-0.3231,-0.3242,-0.3258,-0.3298,-0.3304,-0.3322,-0.3358,-0.3373,-0.3367,-0.3353,-0.3371,-0.3366,-0.3382,-0.3313,-0.3304,-0.3295,-0.3267,-0.3255,-0.3397,-0.3398,-0.3398,-0.3398,0,-0.3083,-0.3092,-0.3075,-0.3124,-0.314,-0.3139,-0.3191,-0.32,-0.3227,-0.3254,-0.3252,-0.3269,-0.3292,-0.3285,-0.3311,-0.3261,-0.3279,-0.3304,-0.3326,-0.3277,-0.3251,-0.324,-0.3391,-0.3392,-0.3394,-0.3395,0,0,-0.2955,-0.3032,-0.3031,-0.3063,-0.3121,-0.3128,-0.3145,-0.3175,-0.3184,-0.32,-0.3201,-0.3199,-0.3204,-0.3219,-0.3232,-0.3195,-0.3112,-0.322,-0.3221,-0.3176,-0.3041,-0.2959,-0.294,-0.3126,-0.3124,-0.3123,-0.3041,0,-0.292,-0.2953,-0.3,-0.302,-0.3041,-0.3096,-0.3113,-0.3141,-0.3166,-0.3173,-0.3166,-0.3173,-0.3182,-0.3182,-0.3142,-0.3141,-0.3083,-0.3132,-0.3109,-0.3109,-0.3029,-0.2924,-0.2817,-0.2727,-0.3031,-0.303,-0.3028,0,-0.287,-0.2908,-0.2933,-0.2997,-0.3009,-0.3025,-0.3061,-0.3086,-0.3109,-0.3126,-0.3123,-0.3139,-0.31,-0.3108,-0.3045,-0.3082,-0.3042,-0.3024,-0.3021,-0.2969,-0.3005,-0.2831,-0.2697,-0.2679,-0.3012,-0.3014,-0.3015,0,-0.2786,-0.285,-0.2869,-0.2893,-0.2975,-0.2982,-0.3016,-0.3056,-0.3076,-0.3088,-0.3102,-0.3079,-0.3072,-0.3022,-0.2991,-0.3018,-0.2913,-0.295,-0.2828,-0.2824,-0.2739,-0.2729,-0.2571,-0.286,-0.286,-0.286,-0.286,0,-0.2733,-0.2744,-0.2831,-0.2845,-0.2854,-0.2927,-0.2935,-0.2971,-0.3015,-0.3017,-0.3063,-0.3055,-0.3049,-0.3008,-0.2966,-0.2856,-0.2889,-0.2784,-0.2779,-0.2704,-0.2692,-0.2683,-0.2729,-0.2857,-0.2858,-0.2858,-0.2859,0,-0.2635,-0.2702,-0.272,-0.2798,-0.2816,-0.2816,-0.289,-0.2896,-0.2964,-0.2968,-0.2971,-0.3025,-0.2971,-0.2946,-0.2868,-0.2818,-0.2673,-0.2674,-0.2585,-0.2567,-0.2431,-0.2478,-0.2339,-0.2272,-0.2519,-0.2516,-0.2514,0,-0.2589,-0.2589,-0.2658,-0.2662,-0.2692,-0.2722,-0.2737,-0.2836,-0.2854,-0.2934,-0.2918,-0.2912,-0.2861,-0.2742,-0.2644,-0.2523,-0.2545,-0.2369,-0.2377,-0.2363,-0.2413,-0.2456,-0.2415,-0.2235,-0.2231,-0.2227,-0.2224,0,-0.2477,-0.2498,-0.252,-0.2535,-0.2548,-0.2582,-0.2621,-0.2642,-0.2743,-0.2759,-0.2761,-0.2734,-0.2649,-0.249,-0.2367,-0.2291,-0.2314,-0.2288,-0.2289,-0.2166,-0.2187,-0.2141,-0.2372,-0.2191,-0.2195,-0.2197,-0.2199,-0.22,-0.2363,-0.2349,-0.237,-0.2372,-0.2398,-0.2413,-0.2379,-0.2447,-0.2459,-0.2449,-0.2529,-0.2443,-0.2378,-0.2187,-0.2107,-0.1962,-0.2049,-0.1917,-0.1972,-0.2015,-0.1939,-0.2087,-0.1895,-0.1897,-0.1898,-0.1899,-0.19,0,-0.2205,-0.2208,-0.2203,-0.2201,-0.2165,-0.2239,-0.2264,-0.221,-0.2161,-0.2206,-0.2163,-0.2086,-0.1945,-0.1904,-0.1776,-0.1687,-0.166,-0.1663,-0.1709,-0.1679,-0.1802,-0.1775,-0.1528,-0.1528,-0.1528,-0.1528,-0.1528,-0.1528,-0.2118,-0.206,-0.2069,-0.1959,-0.1953,-0.1852,-0.183,-0.1792,-0.1795,-0.1714,-0.1689,-0.1709,-0.1718,-0.1816,-0.1684,-0.1594,-0.1575,-0.1519,-0.156,-0.168,-0.171,-0.1738,-0.1719,-0.1464,-0.1464,-0.1364,-0.1363,-0.1363]},{"header":{"parameterUnit":"m.s-1","parameterCategory":2,"la1":30.2991,"la2":30.254,"lo1":-89.0895,"lo2":-89.0444,"dy":0.0017,"dx":0.0017,"nx":28,"ny":28,"refTime":"2024-03-30T21:00:00:Z","depth":"0","parameterNumber":3,"parameterNumberName":"V-component_of_CURRENTS"},"data":[0,0,0,0,0,0,0,0,0,0,0,0,0,0,0,0,0,0,0,0,0,0,0,0,0,0,0,0,0,0,0,0,0,0,0,0,0,0,0,0,0,0,0,0,0,0,0,0,0,0,0,0,0,0,0,0,0,0,-0.0128,-0.0127,0,-0.0026,-0.0025,-0.0024,0.0075,0.0076,0.0077,0.0079,0.0276,0.028,0.0285,0,0,0,0,0,0,0,0,0,0,0,0,0,-0.0182,-0.0182,-0.0128,-0.0127,-0.0126,-0.0027,-0.0025,-0.0023,0.0075,0.0076,0.0078,0.0079,0.0275,0.028,0.0285,0,0,0,0,0,0,0,0,0,0,0,0,0,-0.0126,-0.0182,-0.0128,-0.0066,-0.006,-0.0027,-0.0025,-0.0023,0.0075,0.0076,0.0078,0.008,0.0273,0.0279,0.0286,0.0292,0,0,0.0305,0.0308,0,0,0,0,0,0,0,0,-0.0129,-0.0124,-0.0076,-0.0071,-0.0063,0.0012,0.0028,0.0087,0.0074,0.0026,0.0079,0.008,0.0194,0.0207,0.0224,0.0302,0.031,0.0306,0.031,0.0312,0.0314,0,0,0,0,0,0,0,-0.0133,-0.0127,-0.0085,-0.0076,-0.0068,-0.0025,-0.0016,0.004,0.0103,0.003,0.0037,0.0045,0.0199,0.0218,0.023,0.0313,0.0306,0.0311,0.0315,0.0318,0.0456,0.0456,0,0,0,0,0,0,-0.0155,-0.0131,-0.0089,-0.0083,-0.0095,-0.0026,-0.0015,-0.0012,0.0101,0.0118,0.0043,0.0049,0.0206,0.0222,0.0237,0.027,0.0312,0.0318,0.0322,0.0456,0.0456,0.0456,0,0,0,0,0,0,-0.0157,-0.0152,-0.0093,-0.0106,-0.0095,-0.0027,-0.0025,-0.0011,0.0007,0.0109,0.0129,0.0047,0.0208,0.0228,0.0284,0.0278,0.0321,0.0327,0.0457,0.0456,0.0456,0.0325,0,0,0,0,0,0,-0.0159,-0.0154,-0.0163,-0.0108,-0.0096,-0.0086,-0.0026,-0.001,0.0008,0.0017,0.0119,0.0139,0.0211,0.0273,0.029,0.0288,0.0332,0.0457,0.0457,0.0456,0.0329,0.032,0.0312,0,0,0,0,0,-0.0161,-0.0185,-0.0164,-0.0159,-0.011,-0.0088,-0.0078,-0.0022,0.0006,0.0003,0.0077,0.0136,0.0284,0.0278,0.0297,0.0297,0.0457,0.0457,0.0456,0.0333,0.0322,0.0312,0,0,0,0,0,0,-0.0217,-0.0176,-0.0152,-0.0163,-0.0133,-0.0072,-0.0072,-0.0037,0.0016,0.0028,0.0127,0.0152,0.02,0.0264,0.0254,0.0338,0.0383,0.0387,0.0283,0.0273,0.0265,0.0254,0.0337,0,0,0,0,0,-0.0236,-0.0238,-0.0194,-0.0202,-0.0194,-0.0137,-0.0123,-0.0088,-0.0034,-0.0009,0.0063,0.0145,0.0212,0.0252,0.0319,0.0357,0.0414,0.0374,0.0365,0.0357,0.0363,0.0422,0.0418,0.0455,0.0455,0.0455,0,0,-0.0258,-0.0238,-0.0237,-0.0214,-0.0185,-0.0179,-0.0124,-0.0114,-0.0097,0.0004,0.0045,0.0112,0.0214,0.0262,0.029,0.0315,0.0376,0.0357,0.0349,0.036,0.0421,0.0417,0.0414,0.0455,0.0455,0.0455,0,0,-0.0307,-0.029,-0.0307,-0.0289,-0.026,-0.0224,-0.0229,-0.0177,-0.0143,-0.0105,-0.0023,0.0035,0.0134,0.0207,0.0258,0.0242,0.0323,0.0265,0.0219,0.0274,0.0272,0.027,0.0326,0.033,0.0266,0.0265,0.0265,0,-0.0335,-0.0349,-0.0311,-0.0322,-0.0311,-0.0251,-0.0264,-0.0225,-0.016,-0.0133,-0.0106,0.0036,0.0113,0.0187,0.0186,0.0222,0.0267,0.0243,0.0261,0.026,0.0261,0.0319,0.0326,0.0259,0.026,0.026,0.0261,0,-0.0392,-0.04,-0.0413,-0.0398,-0.0384,-0.0391,-0.0334,-0.0314,-0.0268,-0.0218,-0.0151,-0.0054,0.0036,0.0064,0.0125,0.017,0.0204,0.0233,0.0278,0.0249,0.0313,0.0322,0.025,0.0252,0.0254,0.0256,0,0,-0.0453,-0.0453,-0.0455,-0.0463,-0.0427,-0.0423,-0.04,-0.0359,-0.034,-0.0272,-0.0235,-0.0128,-0.0077,-0.0015,0.0062,0.0114,0.0149,0.0168,0.0174,0.0208,0.0271,0.0332,0.0349,0.0174,0.0175,0.0176,0.0309,0,-0.0506,-0.0553,-0.0526,-0.0554,-0.0572,-0.051,-0.0491,-0.0442,-0.0384,-0.0334,-0.0232,-0.0166,-0.0104,-0.0066,-0.0008,0.012,0.0169,0.0111,0.031,0.0316,0.0361,0.036,0.0399,0.0524,0.0318,0.032,0.0321,0,-0.0567,-0.0589,-0.0636,-0.0633,-0.0633,-0.0632,-0.0591,-0.0566,-0.0474,-0.0427,-0.0349,-0.0259,-0.0155,-0.011,0.0074,0.0032,0.0138,0.0228,0.0236,0.0349,0.0395,0.0526,0.0549,0.0711,0.0336,0.0335,0.0334,0,-0.0637,-0.0662,-0.0705,-0.0705,-0.069,-0.069,-0.0671,-0.0599,-0.0575,-0.0483,-0.0452,-0.0319,-0.0238,-0.0103,0.0096,0.0082,0.03,0.0306,0.046,0.0465,0.057,0.0583,0.0765,0.0422,0.0422,0.0421,0.0421,0,-0.0707,-0.0737,-0.0745,-0.0768,-0.0807,-0.0763,-0.0774,-0.0733,-0.0663,-0.0628,-0.0508,-0.0436,-0.0234,-0.0075,0.008,0.0312,0.0292,0.0461,0.0507,0.0525,0.0532,0.0738,0.0793,0.0426,0.0425,0.0424,0.0423,0,-0.0775,-0.0782,-0.0833,-0.0841,-0.0846,-0.0874,-0.0856,-0.0855,-0.078,-0.0728,-0.0699,-0.0512,-0.0293,-0.0081,0.0175,0.0307,0.0623,0.0594,0.0605,0.0649,0.0921,0.0966,0.1202,0.1311,0.0771,0.0773,0.0775,0,-0.0816,-0.0852,-0.0898,-0.0937,-0.0945,-0.0972,-0.0985,-0.0926,-0.0908,-0.0758,-0.0731,-0.0508,-0.0319,0.0075,0.0351,0.0638,0.0754,0.0826,0.0806,0.0957,0.1041,0.1066,0.1141,0.0891,0.0894,0.0896,0.0898,0,-0.0887,-0.0902,-0.0945,-0.1028,-0.1066,-0.1101,-0.1104,-0.11,-0.1001,-0.0917,-0.0736,-0.0567,-0.0168,0.0207,0.0573,0.0736,0.095,0.0881,0.1043,0.1161,0.1196,0.1315,0.078,0.0918,0.0916,0.0915,0.0914,0.0913,-0.093,-0.0985,-0.1042,-0.1116,-0.1167,-0.12,-0.1203,-0.1153,-0.1085,-0.0893,-0.0737,-0.0413,0.008,0.0619,0.0817,0.1209,0.115,0.1308,0.1354,0.1367,0.1469,0.0977,0.1161,0.116,0.1159,0.1159,0.1159,0,-0.098,-0.104,-0.1122,-0.1203,-0.1261,-0.1263,-0.1256,-0.12,-0.1079,-0.084,-0.061,-0.0016,0.0476,0.0922,0.145,0.1665,0.1708,0.1759,0.1805,0.1863,0.1446,0.1448,0.1695,0.1695,0.1695,0.1695,0.1695,0.1695,-0.101,-0.1099,-0.1146,-0.1257,-0.1305,-0.1325,-0.1304,-0.1171,-0.0982,-0.0553,-0.0172,0.0134,0.0726,0.1545,0.2041,0.2082,0.2273,0.2243,0.2353,0.2057,0.2018,0.1981,0.1999,0.2358,0.2358,0.2762,0.2766,0.2769]}],[{"header":{"parameterUnit":"m.s-1","parameterCategory":2,"la1":30.2991,"la2":30.254,"lo1":-89.0895,"lo2":-89.0444,"dy":0.0017,"dx":0.0017,"nx":28,"ny":28,"refTime":"2024-03-30T21:00:00:Z","depth":"2","parameterNumber":2,"parameterNumberName":"U-component_of_CURRENTS"},"data":[0,0,0,0,0,0,0,0,0,0,0,0,0,0,0,0,0,0,0,0,0,0,0,0,0,0,0,0,0,0,0,0,0,0,0,0,0,0,0,0,0,0,0,0,0,0,0,0,0,0,0,0,0,0,0,0,0,0,-0.28,-0.28,0,-0.2837,-0.2837,-0.2838,-0.2833,-0.2832,-0.2831,-0.283,-0.2866,-0.2868,-0.287,0,0,0,0,0,0,0,0,0,0,0,0,0,-0.2697,-0.2699,-0.28,-0.28,-0.28,-0.2837,-0.2837,-0.2838,-0.2833,-0.2832,-0.2831,-0.283,-0.2866,-0.2868,-0.287,0,0,0,0,0,0,0,0,0,0,0,0,0,-0.2739,-0.2699,-0.28,-0.2802,-0.2802,-0.2837,-0.2837,-0.2838,-0.2833,-0.2832,-0.2831,-0.283,-0.2865,-0.2868,-0.287,-0.2906,0,0,-0.2877,-0.2878,0,0,0,0,0,0,0,0,-0.2737,-0.2743,-0.2801,-0.2801,-0.2802,-0.2828,-0.2814,-0.286,-0.2833,-0.2822,-0.283,-0.2829,-0.2854,-0.2857,-0.2868,-0.2907,-0.2909,-0.2878,-0.2879,-0.288,-0.2881,0,0,0,0,0,0,0,-0.2734,-0.2741,-0.2815,-0.2801,-0.2802,-0.2791,-0.2796,-0.2823,-0.2844,-0.2823,-0.2822,-0.2826,-0.2854,-0.2865,-0.2868,-0.2909,-0.2877,-0.288,-0.2881,-0.2882,-0.2955,-0.2956,0,0,0,0,0,0,-0.2731,-0.2739,-0.2814,-0.2816,-0.2765,-0.2794,-0.28,-0.2822,-0.2844,-0.2846,-0.2826,-0.2825,-0.2862,-0.2866,-0.287,-0.2883,-0.288,-0.2882,-0.2884,-0.2955,-0.2955,-0.2956,0,0,0,0,0,0,-0.2729,-0.2738,-0.2812,-0.2776,-0.2785,-0.2797,-0.2821,-0.2823,-0.2837,-0.2846,-0.2848,-0.2839,-0.2861,-0.2866,-0.2891,-0.2885,-0.2883,-0.2886,-0.2954,-0.2955,-0.2955,-0.2929,0,0,0,0,0,0,-0.2726,-0.2738,-0.2753,-0.2777,-0.2787,-0.283,-0.2822,-0.2824,-0.284,-0.2839,-0.2858,-0.286,-0.2861,-0.2888,-0.2894,-0.2888,-0.2887,-0.2953,-0.2954,-0.2955,-0.2929,-0.2929,-0.2928,0,0,0,0,0,-0.2723,-0.2731,-0.2755,-0.2763,-0.2809,-0.2831,-0.2835,-0.2839,-0.2842,-0.2849,-0.2861,-0.286,-0.2897,-0.2891,-0.2897,-0.2892,-0.2953,-0.2954,-0.2955,-0.2929,-0.2929,-0.2928,0,0,0,0,0,0,-0.2685,-0.2733,-0.2758,-0.2781,-0.2809,-0.2829,-0.2828,-0.2848,-0.2866,-0.2862,-0.2874,-0.2878,-0.2892,-0.2907,-0.2899,-0.2918,-0.2922,-0.2925,-0.29,-0.29,-0.29,-0.2881,-0.2889,0,0,0,0,0,-0.2691,-0.271,-0.2759,-0.2773,-0.2789,-0.2818,-0.2829,-0.2841,-0.2859,-0.2865,-0.2881,-0.2895,-0.2904,-0.2913,-0.2926,-0.2948,-0.2934,-0.2949,-0.2948,-0.2947,-0.2938,-0.2914,-0.291,-0.2959,-0.2959,-0.2959,0,0,-0.2678,-0.2705,-0.2716,-0.2767,-0.2784,-0.2809,-0.2821,-0.2836,-0.2851,-0.2868,-0.2885,-0.2897,-0.2911,-0.2921,-0.2929,-0.2932,-0.2927,-0.2949,-0.2948,-0.2939,-0.2915,-0.2909,-0.2905,-0.296,-0.296,-0.296,0,0,-0.2649,-0.269,-0.2701,-0.2732,-0.2769,-0.2792,-0.2802,-0.284,-0.2849,-0.2882,-0.2883,-0.2888,-0.2928,-0.2916,-0.2921,-0.2932,-0.2924,-0.2947,-0.293,-0.2907,-0.2902,-0.2897,-0.2868,-0.2861,-0.2948,-0.2948,-0.2948,0,-0.2632,-0.2664,-0.2703,-0.2725,-0.2744,-0.2788,-0.2807,-0.2827,-0.2866,-0.2874,-0.2882,-0.2911,-0.2915,-0.2913,-0.2908,-0.2926,-0.2917,-0.2927,-0.2903,-0.2899,-0.2894,-0.2865,-0.2858,-0.2947,-0.2947,-0.2947,-0.2947,0,-0.2621,-0.2653,-0.2654,-0.2706,-0.2733,-0.275,-0.2796,-0.2819,-0.2843,-0.2864,-0.2877,-0.2885,-0.2897,-0.29,-0.2906,-0.2884,-0.2889,-0.2901,-0.2897,-0.2887,-0.2858,-0.2851,-0.2945,-0.2945,-0.2946,-0.2946,0,0,-0.2557,-0.2636,-0.2636,-0.2665,-0.2728,-0.2745,-0.2774,-0.281,-0.2824,-0.2852,-0.2859,-0.2861,-0.2868,-0.2873,-0.2879,-0.2857,-0.281,-0.2868,-0.2867,-0.2825,-0.2758,-0.2674,-0.2658,-0.2824,-0.2822,-0.2821,-0.2747,0,-0.2536,-0.2575,-0.2621,-0.2652,-0.2679,-0.2734,-0.2759,-0.2795,-0.2825,-0.2843,-0.2843,-0.2854,-0.2859,-0.2863,-0.284,-0.283,-0.2791,-0.2829,-0.2786,-0.2784,-0.2699,-0.2646,-0.2478,-0.239,-0.274,-0.2739,-0.2738,0,-0.2503,-0.2542,-0.2575,-0.2642,-0.2658,-0.2682,-0.273,-0.276,-0.2796,-0.2819,-0.2828,-0.2843,-0.2822,-0.2826,-0.2777,-0.2808,-0.277,-0.2752,-0.2749,-0.2672,-0.2685,-0.246,-0.2364,-0.2725,-0.2726,-0.2727,-0.2728,0,-0.2431,-0.2498,-0.2524,-0.2549,-0.2635,-0.2651,-0.269,-0.2742,-0.2768,-0.2797,-0.2817,-0.281,-0.2809,-0.277,-0.2737,-0.276,-0.2674,-0.2701,-0.2582,-0.2577,-0.2422,-0.2405,-0.2633,-0.2633,-0.2633,-0.2633,-0.2633,0,-0.2386,-0.2402,-0.2493,-0.2509,-0.2533,-0.2608,-0.2632,-0.2674,-0.2729,-0.2741,-0.2793,-0.2792,-0.2796,-0.2763,-0.2723,-0.262,-0.2657,-0.2551,-0.254,-0.2409,-0.2392,-0.2683,-0.269,-0.263,-0.2631,-0.2632,-0.2632,0,-0.2297,-0.2362,-0.239,-0.2477,-0.25,-0.2512,-0.2597,-0.2613,-0.2687,-0.2704,-0.2713,-0.277,-0.2723,-0.2705,-0.2639,-0.259,-0.2508,-0.2457,-0.2299,-0.2269,-0.2432,-0.2439,-0.2315,-0.2312,-0.2308,-0.2306,-0.2303,0,-0.2255,-0.2261,-0.2342,-0.2354,-0.239,-0.2433,-0.2458,-0.2561,-0.2586,-0.2672,-0.2663,-0.2664,-0.2614,-0.2508,-0.2415,-0.2302,-0.2395,-0.2098,-0.2094,-0.2391,-0.2394,-0.2406,-0.2417,-0.1883,-0.1878,-0.1873,-0.1869,0,-0.2157,-0.2184,-0.2211,-0.2245,-0.227,-0.231,-0.236,-0.2382,-0.2487,-0.2507,-0.2509,-0.2481,-0.2403,-0.2216,-0.2105,-0.2027,-0.2107,-0.2001,-0.2327,-0.1997,-0.1979,-0.1984,-0.2009,-0.1829,-0.1833,-0.1836,-0.1838,-0.184,-0.2058,-0.2052,-0.2086,-0.2103,-0.2138,-0.2157,-0.213,-0.2196,-0.2208,-0.2195,-0.2275,-0.2163,-0.2147,-0.1872,-0.1759,-0.1678,-0.1824,-0.1755,-0.177,-0.1791,-0.1761,-0.1739,-0.1538,-0.154,-0.1542,-0.1544,-0.1545,0,-0.1921,-0.1932,-0.1941,-0.1954,-0.1929,-0.2005,-0.2029,-0.197,-0.1915,-0.1935,-0.1887,-0.1672,-0.1557,-0.1542,-0.1349,-0.1311,-0.1316,-0.1264,-0.128,-0.132,-0.1356,-0.1307,-0.0962,-0.096,-0.0958,-0.0957,0,0,-0.1846,-0.1805,-0.1817,-0.1732,-0.1738,-0.1649,-0.1625,-0.1565,-0.1541,-0.1421,-0.1356,-0.1453,-0.1492,-0.1226,-0.1166,-0.1031,-0.1164,-0.0978,-0.1447,-0.1506,-0.1539,-0.1639,-0.1607,0,0,0,0,0]},{"header":{"parameterUnit":"m.s-1","parameterCategory":2,"la1":30.2991,"la2":30.254,"lo1":-89.0895,"lo2":-89.0444,"dy":0.0017,"dx":0.0017,"nx":28,"ny":28,"refTime":"2024-03-30T21:00:00:Z","depth":"2","parameterNumber":3,"parameterNumberName":"V-component_of_CURRENTS"},"data":[0,0,0,0,0,0,0,0,0,0,0,0,0,0,0,0,0,0,0,0,0,0,0,0,0,0,0,0,0,0,0,0,0,0,0,0,0,0,0,0,0,0,0,0,0,0,0,0,0,0,0,0,0,0,0,0,0,0,-0.0332,-0.0331,0,-0.0254,-0.0253,-0.0252,-0.0193,-0.0192,-0.0192,-0.0191,-0.006,-0.0057,-0.0054,0,0,0,0,0,0,0,0,0,0,0,0,0,-0.0396,-0.0395,-0.0332,-0.0331,-0.033,-0.0254,-0.0253,-0.0252,-0.0193,-0.0192,-0.0192,-0.0191,-0.0061,-0.0057,-0.0053,0,0,0,0,0,0,0,0,0,0,0,0,0,-0.0347,-0.0395,-0.0332,-0.0292,-0.0288,-0.0255,-0.0253,-0.0252,-0.0193,-0.0192,-0.0192,-0.0191,-0.0062,-0.0057,-0.0053,-0.0038,0,0,-0.0039,-0.0037,0,0,0,0,0,0,0,0,-0.035,-0.0345,-0.0299,-0.0295,-0.029,-0.0233,-0.0228,-0.0178,-0.0193,-0.0228,-0.0191,-0.0191,-0.0114,-0.0105,-0.0091,-0.0032,-0.0026,-0.0038,-0.0035,-0.0033,-0.0032,0,0,0,0,0,0,0,-0.0354,-0.0348,-0.03,-0.0298,-0.0293,-0.0267,-0.026,-0.0218,-0.0174,-0.0225,-0.022,-0.0214,-0.0111,-0.0096,-0.0087,-0.0024,-0.0038,-0.0034,-0.0031,-0.003,0.0078,0.0078,0,0,0,0,0,0,-0.0368,-0.0351,-0.0302,-0.0298,-0.032,-0.0267,-0.0258,-0.0251,-0.0175,-0.0164,-0.0215,-0.0211,-0.0104,-0.0093,-0.0082,-0.005,-0.0033,-0.0029,-0.0026,0.0078,0.0078,0.0078,0,0,0,0,0,0,-0.037,-0.0364,-0.0305,-0.0324,-0.0314,-0.0267,-0.0259,-0.025,-0.0232,-0.0168,-0.0155,-0.0205,-0.0103,-0.0089,-0.0048,-0.0045,-0.0027,-0.0023,0.0078,0.0078,0.0078,0.0009,0,0,0,0,0,0,-0.0372,-0.0366,-0.0366,-0.0325,-0.0314,-0.0292,-0.026,-0.0249,-0.0229,-0.0224,-0.0156,-0.0143,-0.0101,-0.0055,-0.0044,-0.0038,-0.0019,0.0078,0.0078,0.0078,0.0011,0.0007,0.0003,0,0,0,0,0,-0.0375,-0.038,-0.0367,-0.0361,-0.0316,-0.0292,-0.0285,-0.0247,-0.023,-0.0227,-0.0181,-0.0145,-0.0046,-0.0052,-0.0038,-0.0031,0.0077,0.0078,0.0078,0.0013,0.0008,0.0003,0,0,0,0,0,0,-0.0409,-0.0374,-0.0358,-0.0353,-0.0327,-0.0283,-0.0278,-0.0252,-0.0214,-0.0209,-0.0146,-0.0131,-0.0095,-0.0054,-0.0062,0.0001,0.0023,0.0026,-0.0031,-0.0036,-0.004,-0.0049,-0.0015,0,0,0,0,0,-0.0418,-0.0413,-0.0376,-0.0373,-0.0363,-0.0322,-0.0307,-0.0284,-0.0246,-0.0228,-0.0181,-0.0129,-0.0084,-0.0054,-0.0013,0.0022,0.0067,0.0037,0.0033,0.0029,0.0032,0.0096,0.0098,0.0078,0.0078,0.0078,0,0,-0.043,-0.0411,-0.0407,-0.038,-0.0357,-0.0352,-0.0311,-0.0297,-0.0287,-0.022,-0.0192,-0.0145,-0.008,-0.0044,-0.0023,-0.0007,0.0057,0.0029,0.0026,0.0031,0.0097,0.0099,0.01,0.0079,0.0079,0.0079,0,0,-0.0461,-0.0436,-0.0446,-0.043,-0.0405,-0.0378,-0.0377,-0.0336,-0.0311,-0.0283,-0.0231,-0.0181,-0.0119,-0.0065,-0.0031,-0.003,0.0027,-0.0018,-0.0038,0.0024,0.0026,0.0029,0.008,0.0088,-0.0013,-0.0013,-0.0014,0,-0.0477,-0.0483,-0.0446,-0.0454,-0.0445,-0.0394,-0.0404,-0.0373,-0.0323,-0.0299,-0.0285,-0.0179,-0.0126,-0.0064,-0.0063,-0.0038,0.0,-0.0028,0.0018,0.0022,0.0025,0.0078,0.0087,-0.0017,-0.0016,-0.0016,-0.0016,0,-0.0518,-0.0521,-0.0526,-0.0517,-0.0501,-0.0502,-0.0458,-0.0436,-0.0401,-0.0361,-0.0301,-0.0228,-0.016,-0.0135,-0.0098,-0.0042,-0.0023,-0.0002,0.0027,0.0023,0.0079,0.009,-0.0021,-0.002,-0.0019,-0.0018,0,0,-0.0556,-0.0557,-0.0558,-0.0567,-0.0535,-0.0529,-0.0509,-0.047,-0.0451,-0.0393,-0.0355,-0.0271,-0.0223,-0.018,-0.0119,-0.0059,-0.0002,-0.0025,-0.002,0.0019,0.0128,0.0161,0.0177,0.0024,0.0025,0.0027,0.0153,0,-0.06,-0.0639,-0.0616,-0.0639,-0.0654,-0.06,-0.0584,-0.0539,-0.0487,-0.0438,-0.0344,-0.029,-0.0241,-0.0207,-0.014,-0.0035,0.0025,-0.0038,0.0133,0.0138,0.0162,0.019,0.0164,0.0276,0.0164,0.0166,0.0167,0,-0.0649,-0.0668,-0.0708,-0.0703,-0.0702,-0.0702,-0.066,-0.0639,-0.0551,-0.0508,-0.0429,-0.0354,-0.0249,-0.0215,-0.0037,-0.0082,0.0015,0.0096,0.0103,0.0168,0.0192,0.0265,0.0301,0.0186,0.0185,0.0183,0.0182,0,-0.0706,-0.0727,-0.0762,-0.0763,-0.075,-0.0748,-0.0731,-0.0663,-0.064,-0.0548,-0.0516,-0.0385,-0.0313,-0.018,-0.001,-0.0022,0.0185,0.0191,0.0314,0.0317,0.0347,0.035,0.0315,0.0315,0.0315,0.0314,0.0314,0,-0.0764,-0.0789,-0.0796,-0.0817,-0.0848,-0.0809,-0.0814,-0.0774,-0.0708,-0.0673,-0.0559,-0.0492,-0.0301,-0.0157,-0.0016,0.0189,0.0185,0.0322,0.0359,0.0321,0.0321,0.0284,0.0279,0.0319,0.0318,0.0317,0.0316,0,-0.0822,-0.0829,-0.0872,-0.0878,-0.0882,-0.0904,-0.0887,-0.0882,-0.081,-0.076,-0.0733,-0.056,-0.0364,-0.0169,0.0069,0.0186,0.0372,0.0443,0.0382,0.041,0.046,0.045,0.059,0.0592,0.0595,0.0596,0.0598,0,-0.0858,-0.0889,-0.0928,-0.0962,-0.097,-0.0992,-0.1003,-0.0947,-0.0928,-0.0792,-0.0767,-0.0568,-0.0405,-0.0048,0.0196,0.0456,0.0446,0.0567,0.0546,0.047,0.0492,0.0478,0.0466,0.0556,0.0557,0.0558,0.0559,0,-0.0919,-0.0932,-0.0968,-0.1042,-0.1077,-0.1106,-0.1108,-0.1103,-0.1014,-0.0937,-0.0782,-0.0637,-0.0289,0.0016,0.0339,0.0478,0.0522,0.0592,0.0554,0.0484,0.0447,0.0465,0.0453,0.0566,0.0565,0.0565,0.0564,0.0564,-0.0956,-0.1003,-0.1054,-0.1119,-0.1165,-0.1195,-0.1199,-0.1157,-0.1097,-0.0936,-0.0797,-0.0532,-0.0264,0.0226,0.0445,0.0639,0.0627,0.0671,0.0665,0.0659,0.0626,0.0594,0.0733,0.0734,0.0734,0.0734,0.0734,0,-0.1,-0.1052,-0.1124,-0.1198,-0.1251,-0.1254,-0.1248,-0.1206,-0.1106,-0.0916,-0.0722,-0.0383,-0.0038,0.0237,0.0562,0.0743,0.0712,0.0758,0.0684,0.0676,0.067,0.0633,0.0746,0.0747,0.0747,0.0748,0,0,-0.1026,-0.1104,-0.1145,-0.1248,-0.1294,-0.132,-0.1304,-0.1199,-0.1052,-0.0836,-0.0615,-0.034,-0.0008,0.0227,0.0447,0.0613,0.059,0.0618,0.0588,0.0465,0.0456,0.0599,0.0533,0,0,0,0,0]}],[{"header":{"parameterUnit":"m.s-1","parameterCategory":2,"la1":30.2991,"la2":30.254,"lo1":-89.0895,"lo2":-89.0444,"dy":0.0017,"dx":0.0017,"nx":28,"ny":28,"refTime":"2024-03-30T21:00:00:Z","depth":"4","parameterNumber":2,"parameterNumberName":"U-component_of_CURRENTS"},"data":[0,0,0,0,0,0,0,0,0,0,0,0,0,0,0,0,0,0,0,0,0,0,0,0,0,0,0,0,0,0,0,0,0,0,0,0,0,0,0,0,0,0,0,0,0,0,0,0,0,0,0,0,0,0,0,0,0,0,-0.1837,-0.1838,0,-0.1938,-0.1939,-0.194,-0.1976,-0.1976,-0.1976,-0.1976,-0.2034,-0.2035,-0.2037,0,0,0,0,0,0,0,0,0,0,0,0,0,-0.1682,-0.1684,-0.1837,-0.1838,-0.184,-0.1938,-0.1939,-0.194,-0.1976,-0.1976,-0.1976,-0.1976,-0.2033,-0.2035,-0.2037,0,0,0,0,0,0,0,0,0,0,0,0,0,-0.1758,-0.1685,-0.1836,-0.1873,-0.1878,-0.1938,-0.1939,-0.194,-0.1976,-0.1976,-0.1976,-0.1976,-0.2033,-0.2035,-0.2037,-0.205,0,0,-0.2044,-0.2045,0,0,0,0,0,0,0,0,-0.1754,-0.1763,-0.1866,-0.1871,-0.1876,-0.1948,-0.1906,-0.1976,-0.1976,-0.1934,-0.1976,-0.1976,-0.2004,-0.2009,-0.2022,-0.2052,-0.2055,-0.2044,-0.2045,-0.2046,-0.2047,0,0,0,0,0,0,0,-0.1748,-0.1759,-0.1872,-0.1868,-0.1874,-0.1887,-0.1898,-0.1919,-0.1963,-0.1937,-0.1941,-0.196,-0.2006,-0.2019,-0.2023,-0.2056,-0.2044,-0.2046,-0.2047,-0.2048,-0.2146,-0.2147,0,0,0,0,0,0,-0.1745,-0.1754,-0.1869,-0.1876,-0.1819,-0.189,-0.1902,-0.1921,-0.1964,-0.1972,-0.196,-0.1961,-0.2016,-0.2021,-0.2025,-0.2096,-0.2046,-0.2048,-0.205,-0.2145,-0.2147,-0.2148,0,0,0,0,0,0,-0.1741,-0.1754,-0.1865,-0.1821,-0.1836,-0.1893,-0.1915,-0.1924,-0.1975,-0.1982,-0.1988,-0.2007,-0.2016,-0.2022,-0.2071,-0.2097,-0.2049,-0.2052,-0.2144,-0.2145,-0.2147,-0.2204,0,0,0,0,0,0,-0.1736,-0.1752,-0.178,-0.1821,-0.1839,-0.1922,-0.1916,-0.1926,-0.1986,-0.199,-0.2025,-0.2028,-0.2016,-0.2067,-0.2073,-0.2099,-0.2053,-0.2142,-0.2144,-0.2147,-0.22,-0.2207,-0.2213,0,0,0,0,0,-0.173,-0.1767,-0.1781,-0.1796,-0.1871,-0.1924,-0.1935,-0.1971,-0.1989,-0.2017,-0.2039,-0.2029,-0.2085,-0.2071,-0.2077,-0.2104,-0.2141,-0.2144,-0.2146,-0.2197,-0.2206,-0.2213,0,0,0,0,0,0,-0.1718,-0.1776,-0.1792,-0.1846,-0.1891,-0.1932,-0.1972,-0.1998,-0.204,-0.2052,-0.2053,-0.2059,-0.2105,-0.2102,-0.2086,-0.2138,-0.2108,-0.2113,-0.2145,-0.2153,-0.2159,-0.2139,-0.2055,0,0,0,0,0,-0.1727,-0.177,-0.182,-0.1866,-0.1893,-0.1941,-0.1975,-0.2001,-0.2039,-0.206,-0.2084,-0.2103,-0.2116,-0.2135,-0.2145,-0.2187,-0.2161,-0.2205,-0.2212,-0.2217,-0.2204,-0.22,-0.2204,-0.2157,-0.2157,-0.2157,0,0,-0.1738,-0.1775,-0.1802,-0.1867,-0.1906,-0.1944,-0.1962,-0.2025,-0.2056,-0.2058,-0.2118,-0.2132,-0.2132,-0.2167,-0.2187,-0.2174,-0.2218,-0.2221,-0.2226,-0.2209,-0.2203,-0.2207,-0.2211,-0.2159,-0.2159,-0.2158,0,0,-0.1759,-0.1812,-0.1845,-0.1885,-0.1953,-0.1979,-0.2007,-0.207,-0.2101,-0.2158,-0.2157,-0.2188,-0.223,-0.2223,-0.2224,-0.2277,-0.2251,-0.2293,-0.2315,-0.2311,-0.2315,-0.2317,-0.229,-0.2289,-0.2299,-0.2299,-0.2299,0,-0.1771,-0.1813,-0.1865,-0.1901,-0.1939,-0.1997,-0.2034,-0.2074,-0.2143,-0.2168,-0.2183,-0.2238,-0.2245,-0.2264,-0.2279,-0.229,-0.2279,-0.2286,-0.2319,-0.2321,-0.2322,-0.2293,-0.2292,-0.2302,-0.2302,-0.2301,-0.2301,0,-0.1794,-0.1844,-0.1873,-0.1929,-0.1977,-0.2027,-0.2081,-0.2134,-0.2184,-0.2213,-0.2269,-0.2285,-0.2309,-0.2324,-0.2318,-0.234,-0.2326,-0.2325,-0.2296,-0.233,-0.2298,-0.2295,-0.2306,-0.2305,-0.2304,-0.2304,0,0,-0.1772,-0.187,-0.188,-0.1914,-0.1999,-0.2037,-0.2098,-0.2158,-0.2199,-0.2261,-0.2301,-0.2333,-0.2352,-0.2353,-0.2361,-0.2363,-0.2369,-0.2357,-0.2356,-0.2323,-0.2351,-0.2198,-0.2181,-0.2386,-0.2386,-0.2386,-0.2323,0,-0.1773,-0.1839,-0.1889,-0.1955,-0.1995,-0.2067,-0.2115,-0.2179,-0.2235,-0.2288,-0.2315,-0.2354,-0.236,-0.2383,-0.2388,-0.2376,-0.2366,-0.2384,-0.2327,-0.2324,-0.2179,-0.2174,-0.2386,-0.2321,-0.2321,-0.232,-0.232,0,-0.1759,-0.1812,-0.1877,-0.1971,-0.1996,-0.2045,-0.2136,-0.2187,-0.2262,-0.2307,-0.2352,-0.2377,-0.2396,-0.2397,-0.2384,-0.2402,-0.2375,-0.236,-0.2358,-0.2187,-0.2166,-0.228,-0.2315,-0.2316,-0.2316,-0.2316,-0.2317,0,-0.1694,-0.1795,-0.1849,-0.1884,-0.1998,-0.2046,-0.2107,-0.2194,-0.224,-0.2317,-0.2354,-0.2387,-0.2407,-0.2392,-0.2366,-0.2384,-0.2332,-0.2349,-0.2178,-0.2168,-0.2301,-0.2299,-0.2319,-0.2319,-0.2319,-0.2319,-0.2319,0,-0.1654,-0.1701,-0.1832,-0.1862,-0.193,-0.2021,-0.2094,-0.2159,-0.2246,-0.2278,-0.2358,-0.2368,-0.2411,-0.2393,-0.2362,-0.2245,-0.2325,-0.2158,-0.2134,-0.2327,-0.2329,-0.2299,-0.2298,-0.2317,-0.2317,-0.2318,-0.2318,0,-0.1566,-0.1654,-0.1723,-0.1857,-0.1902,-0.1949,-0.2082,-0.2119,-0.2222,-0.2264,-0.2287,-0.2358,-0.2322,-0.2326,-0.2288,-0.2216,-0.2135,-0.2073,-0.2257,-0.2249,-0.1976,-0.1979,-0.1871,-0.1865,-0.186,-0.1856,-0.1852,0,-0.1522,-0.1552,-0.1701,-0.1742,-0.1808,-0.1902,-0.1954,-0.2084,-0.2119,-0.2225,-0.2216,-0.2238,-0.2255,-0.2065,-0.2099,-0.2004,-0.1985,-0.1936,-0.1968,-0.1938,-0.1928,-0.1938,-0.1948,-0.1844,-0.1842,-0.1841,-0.184,0,-0.1431,-0.15,-0.1558,-0.1649,-0.1719,-0.1787,-0.1874,-0.1888,-0.201,-0.2124,-0.2072,-0.2036,-0.1988,-0.1943,-0.1878,-0.182,-0.1967,-0.1882,-0.1893,-0.1923,-0.1904,-0.1901,-0.1916,-0.1822,-0.1824,-0.1826,-0.1827,0,-0.1357,-0.1376,-0.1463,-0.1524,-0.1609,-0.1636,-0.1709,-0.1736,-0.1786,-0.1907,-0.1875,-0.1894,-0.1955,-0.1844,-0.1784,-0.1711,-0.1693,-0.1647,-0.167,-0.169,-0.166,-0.1612,-0.1395,0,0,0,0,0,-0.1273,-0.128,-0.133,-0.1389,-0.1466,-0.1512,-0.163,-0.1705,-0.1825,-0.173,-0.18,-0.1738,-0.1654,-0.1672,-0.1554,-0.1706,-0.1706,-0.1565,-0.1669,-0.1723,-0.1743,-0.1725,0,0,0,0,0,0,-0.1215,-0.1257,-0.128,-0.1256,-0.1265,-0.1331,-0.1397,-0.1487,-0.1453,-0.1574,-0.153,-0.1618,-0.1557,-0.1668,-0.1506,-0.151,-0.1538,-0.1588,-0.1583,-0.1711,-0.173,-0.1746,-0.1734,0,0,0,0,0]},{"header":{"parameterUnit":"m.s-1","parameterCategory":2,"la1":30.2991,"la2":30.254,"lo1":-89.0895,"lo2":-89.0444,"dy":0.0017,"dx":0.0017,"nx":28,"ny":28,"refTime":"2024-03-30T21:00:00:Z","depth":"4","parameterNumber":3,"parameterNumberName":"V-component_of_CURRENTS"},"data":[0,0,0,0,0,0,0,0,0,0,0,0,0,0,0,0,0,0,0,0,0,0,0,0,0,0,0,0,0,0,0,0,0,0,0,0,0,0,0,0,0,0,0,0,0,0,0,0,0,0,0,0,0,0,0,0,0,0,-0.0323,-0.0322,0,-0.0276,-0.0275,-0.0275,-0.0247,-0.0246,-0.0246,-0.0246,-0.018,-0.0178,-0.0176,0,0,0,0,0,0,0,0,0,0,0,0,0,-0.0352,-0.0352,-0.0323,-0.0322,-0.0322,-0.0276,-0.0275,-0.0275,-0.0247,-0.0246,-0.0246,-0.0246,-0.018,-0.0178,-0.0176,0,0,0,0,0,0,0,0,0,0,0,0,0,-0.0326,-0.0352,-0.0323,-0.0302,-0.03,-0.0276,-0.0275,-0.0274,-0.0247,-0.0246,-0.0246,-0.0246,-0.0181,-0.0178,-0.0176,-0.0164,0,0,-0.0168,-0.0167,0,0,0,0,0,0,0,0,-0.0327,-0.0325,-0.0306,-0.0304,-0.0301,-0.0267,-0.0261,-0.0236,-0.0247,-0.0267,-0.0246,-0.0246,-0.0207,-0.0203,-0.0194,-0.0161,-0.0158,-0.0168,-0.0167,-0.0166,-0.0165,0,0,0,0,0,0,0,-0.0329,-0.0326,-0.0304,-0.0305,-0.0302,-0.0283,-0.0279,-0.0256,-0.0238,-0.0265,-0.0263,-0.0258,-0.0206,-0.0197,-0.0192,-0.0157,-0.0168,-0.0166,-0.0164,-0.0163,-0.0115,-0.0115,0,0,0,0,0,0,-0.0337,-0.0328,-0.0306,-0.0303,-0.0314,-0.0283,-0.0279,-0.0278,-0.0239,-0.0233,-0.0258,-0.0257,-0.0201,-0.0195,-0.019,-0.0173,-0.0166,-0.0163,-0.0162,-0.0115,-0.0115,-0.0115,0,0,0,0,0,0,-0.0338,-0.0336,-0.0308,-0.0314,-0.0309,-0.0283,-0.0282,-0.0277,-0.0269,-0.0234,-0.0227,-0.0255,-0.0201,-0.0193,-0.0175,-0.017,-0.0162,-0.016,-0.0115,-0.0115,-0.0115,-0.014,0,0,0,0,0,0,-0.0339,-0.0337,-0.0342,-0.0315,-0.0309,-0.0299,-0.0282,-0.0276,-0.0266,-0.0264,-0.0229,-0.0222,-0.02,-0.0179,-0.0173,-0.0167,-0.0158,-0.0114,-0.0115,-0.0115,-0.0139,-0.0141,-0.0143,0,0,0,0,0,-0.0341,-0.0345,-0.0342,-0.034,-0.0316,-0.0299,-0.0294,-0.0274,-0.0266,-0.0266,-0.0244,-0.0224,-0.0177,-0.0178,-0.017,-0.0163,-0.0114,-0.0115,-0.0115,-0.0138,-0.0141,-0.0143,0,0,0,0,0,0,-0.036,-0.0342,-0.0338,-0.0338,-0.0324,-0.0294,-0.0292,-0.0278,-0.026,-0.026,-0.0226,-0.0218,-0.0202,-0.0182,-0.0183,-0.0152,-0.0142,-0.0141,-0.0162,-0.0164,-0.0166,-0.0167,-0.0156,0,0,0,0,0,-0.0368,-0.0369,-0.0348,-0.0349,-0.0343,-0.032,-0.0311,-0.0299,-0.0278,-0.027,-0.0245,-0.022,-0.0198,-0.0181,-0.0163,-0.0143,-0.0106,-0.0134,-0.0136,-0.0138,-0.0134,-0.0069,-0.0064,-0.0117,-0.0117,-0.0117,0,0,-0.0376,-0.0367,-0.0367,-0.0354,-0.0341,-0.0341,-0.0314,-0.0306,-0.0303,-0.0265,-0.0256,-0.023,-0.0197,-0.0178,-0.0168,-0.0158,-0.0107,-0.0139,-0.014,-0.0135,-0.0069,-0.0063,-0.0058,-0.0117,-0.0117,-0.0117,0,0,-0.0396,-0.0386,-0.0395,-0.0387,-0.0374,-0.0358,-0.0358,-0.0334,-0.032,-0.031,-0.028,-0.0247,-0.0224,-0.0185,-0.0166,-0.0166,-0.0125,-0.0168,-0.0169,-0.0106,-0.01,-0.0095,-0.0051,-0.0042,-0.0162,-0.0162,-0.0162,0,-0.0407,-0.0418,-0.0395,-0.0403,-0.04,-0.0369,-0.0379,-0.0361,-0.0334,-0.0318,-0.0315,-0.0253,-0.0223,-0.0177,-0.0178,-0.0168,-0.0136,-0.0162,-0.0106,-0.0101,-0.0095,-0.0051,-0.004,-0.0163,-0.0163,-0.0163,-0.0163,0,-0.0435,-0.0445,-0.0448,-0.0451,-0.0442,-0.0445,-0.0419,-0.0407,-0.0389,-0.0362,-0.0323,-0.0275,-0.0234,-0.0217,-0.0198,-0.0142,-0.0135,-0.0121,-0.0098,-0.0091,-0.0045,-0.0034,-0.0165,-0.0164,-0.0164,-0.0164,0,0,-0.0456,-0.0468,-0.047,-0.0483,-0.0469,-0.0466,-0.0457,-0.0432,-0.0419,-0.0381,-0.0352,-0.0296,-0.0259,-0.0234,-0.0193,-0.0132,-0.0064,-0.0113,-0.0109,-0.0066,0.0063,0.0039,0.005,-0.004,-0.0038,-0.0037,0.0075,0,-0.0487,-0.0522,-0.0511,-0.0537,-0.055,-0.0519,-0.0512,-0.0482,-0.0449,-0.0412,-0.0338,-0.0302,-0.0269,-0.0246,-0.0179,-0.0097,-0.0033,-0.0096,0.0046,0.005,0.0032,0.0063,-0.003,0.0083,0.0086,0.0088,0.009,0,-0.0518,-0.0538,-0.0576,-0.0583,-0.0584,-0.0593,-0.0568,-0.0557,-0.049,-0.046,-0.0396,-0.0341,-0.0248,-0.0225,-0.0066,-0.011,-0.0028,0.0041,0.0047,0.0044,0.0049,0.0077,0.0111,0.011,0.0108,0.0107,0.0105,0,-0.0551,-0.0578,-0.0613,-0.0618,-0.0621,-0.0628,-0.0623,-0.0574,-0.0559,-0.0486,-0.0461,-0.0348,-0.0293,-0.017,-0.0037,-0.0047,0.0137,0.0144,0.0205,0.0204,0.0202,0.0196,0.0266,0.0266,0.0266,0.0266,0.0265,0,-0.0583,-0.061,-0.0638,-0.0658,-0.0692,-0.0673,-0.0685,-0.0658,-0.0611,-0.0584,-0.0491,-0.0438,-0.0275,-0.0156,-0.0036,0.0115,0.0142,0.0214,0.0238,0.0186,0.0176,0.021,0.0202,0.027,0.0269,0.0268,0.0267,0,-0.0611,-0.0631,-0.0676,-0.0702,-0.0715,-0.0739,-0.0746,-0.0743,-0.0693,-0.0654,-0.0632,-0.0495,-0.0337,-0.0177,0.0031,0.011,0.0261,0.0309,0.0232,0.0249,0.0285,0.0274,0.0391,0.0391,0.0392,0.0392,0.0392,0,-0.0628,-0.0657,-0.0718,-0.0756,-0.0776,-0.0809,-0.0827,-0.0795,-0.0781,-0.0682,-0.0658,-0.0507,-0.0401,-0.0121,0.0037,0.0262,0.029,0.0356,0.0333,0.0289,0.0302,0.0291,0.028,0.0392,0.0392,0.0392,0.0393,0,-0.0657,-0.0685,-0.0724,-0.0805,-0.085,-0.0886,-0.0902,-0.0892,-0.0833,-0.0796,-0.0653,-0.0499,-0.0323,-0.0115,0.0054,0.0215,0.0306,0.0359,0.0359,0.0339,0.0292,0.0302,0.0291,0.0393,0.0393,0.0393,0.0393,0,-0.0676,-0.0715,-0.0775,-0.0839,-0.0905,-0.0934,-0.0937,-0.0894,-0.0864,-0.0741,-0.0695,-0.0492,-0.0371,-0.0138,0.0021,0.017,0.0206,0.0243,0.025,0.0251,0.0169,0.0087,0.0157,0,0,0,0,0,-0.0686,-0.0733,-0.0801,-0.0871,-0.0936,-0.0965,-0.0972,-0.0955,-0.0897,-0.08,-0.0738,-0.0565,-0.0303,-0.0183,-0.0035,0.0004,0.0208,0.0178,0.0248,0.0398,0.0397,0.032,0,0,0,0,0,0,-0.0695,-0.0763,-0.08,-0.0882,-0.093,-0.0985,-0.0987,-0.0948,-0.0872,-0.0794,-0.0646,-0.0554,-0.0297,-0.039,-0.004,0.0005,0.0064,0.0306,0.0308,0.0398,0.0397,0.0397,0.0318,0,0,0,0,0]}]]